KUIPER-00279

导读 | 豆包AI

KUIPER-00279是亚马逊柯伊伯(Kuiper)低轨宽带星座的卫星之一,于2026年2月12日在法属圭亚那库鲁航天中心由欧洲阿丽亚娜64型火箭发射升空,本次任务为阿丽亚娜6号首次商业发射,共将32颗柯伊伯卫星送入轨道。 该卫星隶属于亚马逊“柯伊伯计划”,项目旨在构建包含3236颗卫星的低轨卫星互联网星座,为全球提供高速低延迟互联网接入,对标SpaceX星链,KUIPER-00279的成功入轨也推动柯伊伯星座部署进入新阶段。

Basic Information
目录编号:
67795
目录名称:
KUIPER-00279
国际标识:
2026-030AH
轨道中心:
EARTH
卫星名称:
KUIPER-00279
卫星全名:
KUIPER-00279
卫星状态:
在轨 (已飞行102 天)
发射日期:
2026-02-12 UTC
国别 :
美国 (US)
星等 :
--
Orbit Information
数据来源 国际轨道数据
星历时间: 2026-05-24T06:07:45+0800
1天前
查看轨道信息
半长轴: 6837.311km
偏心率: 0.0007762
轨道倾角: 51.881°
近地点辐角 322.160°
升交点赤经 216.327°
平近点角 37.884°
近地点: 453.866km
远地点: 464.482km
周期: 93.775分钟
每日圈数: 15.355883
Detailed Information
使用方式:
暂无
2D Orbit Map
3D Orbit Map
Orbit Altitude Analysis Chart
Orbit Inclination Analysis Chart
Orbit Comprehensive Analysis Chart
View Comprehensive Chart